EW6089 Weather Reports


time (UTC)temp
F
wind
direction
speed
knots
gust
knots
rain 1hr
in
rain 24hr
in
rain mn
in
humidity
%
barometer
mb
20260903070016 53 0.0 0.0 0.00 0.19 0.19 97 1008.1
20260903065016 53 0.0 0.9 0.00 0.19 0.19 97 1008.2
20260903064016 53 0.0 0.9 0.00 0.19 0.19 97 1008.0
20260903063016 53 0.0 0.9 0.00 0.19 0.19 97 1007.8
20260903062016 53 0.0 0.9 0.00 0.19 0.19 97 1007.9
20260903061016 53 0.0 0.9 0.00 0.19 0.19 96 1007.8
20260903060016 53 0.0 0.0 0.00 0.19 0.19 97 1007.8
20260903055016 54 0.0 0.9 0.00 0.19 0.19 97 1007.9
20260903054016 54 0.0 0.0 0.00 0.19 0.19 97 1008.1
20260903053036 54 0.0 0.9 0.00 0.19 0.19 97 1008.1
20260903052016 54 0.0 0.0 0.00 0.19 0.19 97 1008.0
20260903051017 54 0.0 0.0 0.00 0.19 0.19 96 1008.0
20260903050049 54 0.0 0.0 0.00 0.19 0.19 96 1007.8
20260903045016 54 0.0 0.0 0.00 0.19 0.19 96 1007.8
20260903044015 54 0.0 0.0 0.00 0.19 0.19 96 1007.8
20260903043018 54 0.0 0.0 0.00 0.19 0.19 96 1007.7
20260903042047 55 0.0 0.0 0.00 0.19 0.19 96 1007.6
20260903041042 55 0.0 0.0 0.00 0.19 0.19 96 1007.5
20260903040019 55 0.0 0.0 0.00 0.19 0.19 96 1007.5
20260903035022 55 0.0 0.0 0.00 0.20 0.19 96 1007.4
20260903034019 55 0.0 0.0 0.00 0.20 0.19 96 1007.2
20260903033017 56 0.0 0.0 0.00 0.20 0.19 96 1007.1
20260903032017 56 0.0 0.0 0.00 0.20 0.19 96 1007.2
20260903031018 56 0.0 0.0 0.00 0.20 0.19 96 1006.9
20260903030016 57 0.0 0.0 0.00 0.20 0.19 96 1006.8
20260903025017 57 0.0 0.0 0.00 0.20 0.19 96 1006.6
20260903024018 57 0.0 0.0 0.00 0.20 0.19 96 1006.5
20260903023016 58 0.0 0.0 0.00 0.20 0.19 96 1006.3
20260903022016 58 0.0 0.0 0.01 0.20 0.19 96 1006.2
20260903021017 58 0.0 0.9 0.03 0.20 0.19 96 1006.1
20260903020019 58 0.0 2.6 0.03 0.20 0.19 96 1006.0
20260903015018 58 0.0 0.0 0.03 0.20 0.19 96 1005.8
20260903014016 58 0.0 0.0 0.03 0.20 0.19 96 1005.8
20260903013016 58 0.0 0.0 0.03 0.20 0.19 96 1005.5
20260903012023 59 0.0 1.7 0.02 0.19 0.18 96 1005.4
20260903011056 59 0.0 1.7 0.00 0.17 0.16 96 1005.3
20260903010037 59 0.0 0.9 0.01 0.17 0.16 96 1004.9
20260903005028 59 0.0 0.0 0.01 0.17 0.16 96 1004.3
20260903004016 59 0.0 0.0 0.01 0.17 0.16 96 1004.4
20260903003058 59 0.0 0.0 0.02 0.17 0.16 96 1004.4
20260903002016 59 0.0 0.0 0.03 0.17 0.16 96 1004.4
20260903001016 59 0.0 0.0 0.04 0.17 0.16 95 1004.6
20260903000016 59 0.0 0.0 0.04 0.16 0.15 95 1004.6
20260902235018 59 0.0 0.0 0.05 0.16 0.15 95 1004.7
20260902234018 59 0.0 0.0 0.06 0.16 0.15 95 1004.9
20260902233017 59 0.0 0.0 0.06 0.15 0.14 95 1005.2
20260902232016 59 0.0 0.0 0.06 0.14 0.13 95 1005.1
20260902231017 59 0.0 0.0 0.06 0.13 0.12 94 1004.9
20260902230021 60 0.0 0.0 0.05 0.12 0.11 94 1004.8
20260902225041 60 0.0 0.9 0.05 0.11 0.10 94 1005.1
20260902224022 60 0.0 0.0 0.04 0.10 0.09 93 1004.9
20260902223036 60 0.0 0.9 0.04 0.09 0.08 93 1005.0
20260902222016 60 0.0 0.9 0.05 0.08 0.07 93 1004.8
20260902221050 60 0.0 0.9 0.05 0.07 0.06 92 1004.7
20260902220016 60 0.0 0.9 0.06 0.07 0.06 92 1004.7
20260902215016 61 0.0 0.9 0.05 0.06 0.05 91 1004.5
20260902214023 61 0.0 0.0 0.05 0.06 0.05 89 1004.6
20260902213016 62 0.0 0.9 0.04 0.05 0.04 86 1004.8
20260902212016 63 0.0 0.9 0.02 0.03 0.02 83 1004.8
20260902211016 65 0.0 0.9 0.01 0.02 0.01 77 1004.8
20260902210016 66 0.0 4.3 0.00 0.01 0.00 72 1004.9
20260902205036 66 0.0 2.6 0.00 0.01 0.00 68 1004.7
20260902204016 66 0.0 3.5 0.00 0.01 0.00 68 1004.6
20260902203016 67 45 1.7 7.0 0.00 0.01 0.00 67 1004.6
20260902202016 68 135 0.9 7.0 0.00 0.01 0.00 64 1004.8
20260902201016 69 0.0 0.9 0.00 0.01 0.00 63 1004.6
20260902200016 69 0.0 0.9 0.00 0.01 0.00 63 1004.7
20260902195016 68 0.0 1.7 0.00 0.01 0.00 65 1004.8
20260902194017 68 0.0 0.0 0.00 0.01 0.00 65 1004.9
20260902193016 68 0.0 0.0 0.00 0.01 0.00 65 1005.0
20260902191016 67 0.0 0.0 0.00 0.01 0.00 68 1005.2
20260902190023 67 0.0 0.9 0.00 0.01 0.00 69 1005.3
20260902185016 67 0.0 0.0 0.00 0.01 0.00 70 1005.4
20260902184015 67 0.0 0.0 0.00 0.01 0.00 70 1005.4
20260902183016 66 0.0 0.0 0.00 0.01 0.00 71 1005.7
20260902182156 66 0.0 0.0 0.00 0.01 0.00 75 1005.9
20260902181036 66 0.0 0.0 0.00 0.01 0.00 74 1005.9
20260902180016 65 0.0 0.9 0.00 0.01 0.00 74 1006.1
20260902175016 65 0.0 2.6 0.00 0.01 0.00 75 1006.1
20260902174015 65 0.0 2.6 0.00 0.01 0.00 77 1006.2
20260902173015 64 0.0 0.0 0.00 0.01 0.00 79 1006.3
20260902172016 64 0.0 0.0 0.00 0.01 0.00 78 1006.4
20260902171016 64 0.0 0.0 0.00 0.01 0.00 82 1006.5
20260902170016 63 0.0 0.0 0.00 0.01 0.00 82 1006.5
20260902165016 63 0.0 0.0 0.00 0.01 0.00 84 1006.5
20260902164016 62 0.0 0.0 0.00 0.01 0.00 88 1006.6
20260902163016 61 0.0 0.0 0.00 0.01 0.00 92 1006.7
20260902162015 60 0.0 0.0 0.00 0.01 0.00 95 1006.8
20260902161016 59 0.0 0.0 0.00 0.01 0.00 96 1006.8
20260902160020 59 0.0 0.0 0.00 0.01 0.00 97 1006.9
20260902155017 58 0.0 0.0 0.00 0.01 0.00 97 1007.1
20260902154017 58 0.0 0.0 0.00 0.01 0.00 97 1007.2
20260902153022 58 0.0 0.0 0.00 0.01 0.00 97 1007.4
20260902152017 57 0.0 0.0 0.00 0.01 0.00 97 1007.4
20260902151019 57 0.0 0.0 0.00 0.01 0.00 97 1007.5
20260902150016 57 0.0 0.0 0.00 0.01 0.00 97 1007.7
20260902145018 57 0.0 0.0 0.00 0.01 0.00 97 1007.9
20260902144017 56 0.0 0.0 0.00 0.01 0.00 97 1008.0
20260902143021 56 0.0 0.0 0.00 0.01 0.00 97 1008.1
20260902142017 56 0.0 0.0 0.00 0.01 0.00 97 1008.1
20260902141018 56 0.0 0.0 0.00 0.01 0.00 97 1008.2
20260902140017 56 0.0 0.0 0.00 0.01 0.00 97 1008.2
20260902135058 56 0.0 0.0 0.00 0.01 0.00 97 1008.2
20260902134017 56 0.0 0.0 0.00 0.01 0.00 97 1008.2
20260902133017 56 0.0 0.0 0.00 0.01 0.00 97 1008.2
20260902132017 56 0.0 0.0 0.00 0.01 0.00 97 1008.2
20260902131017 56 0.0 0.0 0.00 0.01 0.00 97 1008.3
20260902130017 56 0.0 0.0 0.00 0.01 0.00 97 1008.3
20260902125017 56 0.0 0.0 0.00 0.01 0.00 97 1008.4
20260902124017 56 0.0 0.0 0.00 0.01 0.00 97 1008.5
20260902123017 56 0.0 0.0 0.00 0.01 0.00 97 1008.5
20260902122018 56 0.0 0.0 0.00 0.01 0.00 96 1008.5
20260902121017 57 0.0 0.0 0.00 0.01 0.00 96 1008.6
20260902120017 57 0.0 0.0 0.00 0.01 0.00 96 1008.6
20260902115017 57 0.0 0.0 0.00 0.01 0.00 96 1008.8
20260902114017 57 0.0 0.0 0.00 0.01 0.00 96 1008.8
20260902113017 57 0.0 0.0 0.00 0.01 0.00 96 1008.9
20260902112017 57 0.0 0.0 0.00 0.01 0.00 96 1008.9
20260902111017 58 0.0 0.0 0.00 0.01 0.00 96 1009.0
20260902110037 58 0.0 0.0 0.00 0.01 0.00 96 1009.1
20260902105038 58 0.0 0.0 0.00 0.01 0.00 96 1009.1
20260902104017 58 0.0 0.0 0.00 0.01 0.00 96 1009.2
20260902103017 58 0.0 0.0 0.00 0.01 0.00 96 1009.2
20260902102017 58 0.0 0.0 0.00 0.01 0.00 96 1009.4
20260902101017 58 0.0 0.0 0.00 0.01 0.00 96 1009.4
20260902100037 58 0.0 0.0 0.00 0.01 0.00 96 1009.4
20260902095017 58 0.0 0.0 0.00 0.01 0.00 96 1009.5
20260902094017 58 0.0 0.0 0.00 0.01 0.00 96 1009.6
20260902093017 58 0.0 0.0 0.00 0.01 0.00 96 1009.6
20260902092057 58 0.0 0.0 0.00 0.01 0.00 96 1009.6
20260902091018 58 0.0 0.0 0.00 0.01 0.00 96 1009.5
20260902090017 58 0.0 0.0 0.00 0.01 0.00 96 1009.6
20260902085037 58 0.0 0.0 0.00 0.01 0.00 96 1009.6
20260902084102 58 0.0 0.0 0.00 0.01 0.00 96 1009.8
20260902083016 58 0.0 0.0 0.00 0.01 0.00 96 1009.9
20260902082017 58 0.0 0.0 0.00 0.01 0.00 96 1010.0
20260902081017 58 0.0 0.0 0.00 0.01 0.00 96 1010.1
20260902080017 59 0.0 0.0 0.00 0.01 0.00 96 1010.0
20260902075017 59 0.0 0.0 0.00 0.01 0.00 96 1010.2
20260902074017 59 0.0 0.0 0.00 0.01 0.00 96 1010.2
20260902073016 58 0.0 0.0 0.00 0.01 0.00 96 1010.2
20260902072017 58 0.0 0.0 0.00 0.01 0.00 96 1010.2
20260902071018 58 0.0 0.0 0.00 0.01 0.00 96 1010.3